COSMOS 1250

Satellite information

Favourite Embed

Satellite Type and Status

PAYLOADIN ORBIT

Key statistics

Satellite COSMOS 1250 at a glance.

Uptime

16308

Days in orbit

Revolutions

≈ 12.6

Per day

Orbit

LEO

Low Earth Orbit

Inclination

74.0

Latest

Satellite identification and parameters

Extended collection of information and parameters for COSMOS 1250.

Object identification

Identified? True

Debris? False

Object name: COSMOS 1250

International designator: 1981-022A

Object number (NORAD): 12320

Object ID (CCSDS): 12320

Country: COMMONWEALTH OF INDEPENDENT STATES (CIS)

Current information (Y/N): Y

RCS size: MEDIUM

Orbital parameters

Period: 114.442 minutes

Inclination: 74.0282 deg

SMA: 7808.201 km

Apoapsis: 1470.327 km

Periapsis: 1389.805 km

RAAN: 303.3062 deg

Eccentricy: 0.00515627

Argument of periapsis: 50.0652 deg

Mean anomaly: 109.8767 deg

Mean motion: 12.5827703 rev/day

Mean motion (dot): 0.00000003 rev/day2

B* drag term: 0.00011114661 1/REarth

Two-line elements (TLE)

Creation date: Oct. 28, 2025, 7:11 p.m.

Reference frame: TEME

Reference center: EARTH

Epoch: Oct. 28, 2025, 12:15 p.m. UTC

TLE line 0: 0 COSMOS 1250

TLE line 1: 1 12320U 81022A 25301.51079942 .00000003 00000-0 11115-3 0 9994

TLE line 2: 2 12320 74.0282 303.3062 0051563 50.0652 109.8767 12.58277030 50769

Live tracking on map

Real-time ground track for satellite COSMOS 1250.

In-orbit conjunctions

There are no conjunctions computed for COSMOS 1250, at the moment. Check back to stay up to date, as we update our databases every day.

Go to all conjunctions

Associated space launch

Military communications satellites

COSMOS 1250 was lifted into orbit during the mission ‘Kosmos-3M | Strela-1M 209-216’, on board a Kosmos-3M space rocket.

The launch took place on March 6, 1981, 11:31 a.m. from 132/2.

For more information about the launch, click the button.

Launch to space Kosmos-3M | Strela-1M 209-216
Kosmos-3M | Strela-1M 209-216

Agency: N/A

Status: Launch Successful

Launch date: March 6, 1981, 11:31 a.m. UTC

Rocket: Kosmos-3M

Launch pad: 132/2

Location: Plesetsk Cosmodrome, Russian Federation

...

Latest news about this satellite

There are no fresh news available about this satellite. Check back as we update our databases every day.


Newsletter sign-up

Weekly statistics, charts and insights to help you stay on top of the space industry.